Check out our new BloomSky Weather System.

Active alerts


No alerts


Thunder radar  blitzortung!


Rain radar more information rain snow radar


Visit our other weather sites:

Template documentation
and downloads

And another site



Weather Underground History page Text

Daily Summary for January 4, 2017 Units:  Metric    English   Both
« Previous Day
Next Day »
Daily Weekly Monthly Yearly Custom
  High: Low: Average:
Temperature: 11.1 °C 4.8 °C 7.9 °C
Dew Point: 6.1 °C 2 °C 4.6 °C
Humidity: 93 % 68 % 79 %
Wind Speed: 16.1 km/h 0 km/h 3.7 km/h
Wind Gust: 32.2 km/h - -
Wind:- - WNW
Pressure: 1022.2 hPa 1014.4 hPa -
Precipitation: 0 mm    
Historical Graphs
 
 
Tabular Data for January 4, 2017
Time Temperature Dew Point Pressure Wind Wind Speed Wind Gust Humidity Rainfall Rate (Hourly)
00:00 8.2 °C 4.4 °C 1019.5 hPa NNW 9.7 km/h 24.1 km/h 77 % 0 mm
00:05 8.1 °C 4.5 °C 1019.5 hPa NW 8 km/h 22.5 km/h 78 % 0 mm
00:10 8 °C 4.4 °C 1019.5 hPa NW 8 km/h 25.7 km/h 78 % 0 mm
00:15 7.9 °C 4.3 °C 1019.5 hPa NW 8 km/h 25.7 km/h 78 % 0 mm
00:20 7.8 °C 4.4 °C 1019.5 hPa NW 6.4 km/h 25.7 km/h 79 % 0 mm
00:25 7.8 °C 4.4 °C 1019.2 hPa NNW 8 km/h 20.9 km/h 79 % 0 mm
00:30 7.8 °C 4.4 °C 1019.5 hPa NW 9.7 km/h 20.9 km/h 79 % 0 mm
00:35 7.7 °C 4.3 °C 1019.5 hPa NW 6.4 km/h 19.3 km/h 79 % 0 mm
00:40 7.7 °C 4.5 °C 1019.2 hPa NW 11.3 km/h 19.3 km/h 80 % 0 mm
00:45 7.6 °C 4.4 °C 1019.2 hPa NW 4.8 km/h 14.5 km/h 80 % 0 mm
00:50 7.6 °C 4.4 °C 1019.5 hPa NW 11.3 km/h 14.5 km/h 80 % 0 mm
00:55 7.6 °C 4.4 °C 1019.5 hPa NW 4.8 km/h 14.5 km/h 80 % 0 mm
01:00 7.5 °C 4.5 °C 1019.5 hPa NW 8 km/h 14.5 km/h 81 % 0 mm
01:05 7.5 °C 4.5 °C 1019.9 hPa NW 3.2 km/h 17.7 km/h 81 % 0 mm
01:10 7.5 °C 4.5 °C 1019.5 hPa NNW 3.2 km/h 17.7 km/h 81 % 0 mm
01:15 7.4 °C 4.4 °C 1019.5 hPa NNW 4.8 km/h 17.7 km/h 81 % 0 mm
01:20 7.4 °C 4.4 °C 1019.5 hPa NW 4.8 km/h 16.1 km/h 81 % 0 mm
01:25 7.4 °C 4.5 °C 1019.2 hPa NW 3.2 km/h 12.9 km/h 82 % 0 mm
01:35 7.3 °C 4.4 °C 1019.2 hPa NNW 3.2 km/h 9.7 km/h 82 % 0 mm
01:40 7.3 °C 4.4 °C 1019.2 hPa NNW 3.2 km/h 9.7 km/h 82 % 0 mm
01:45 7.3 °C 4.6 °C 1019.2 hPa NW 1.6 km/h 9.7 km/h 83 % 0 mm
01:50 7.3 °C 4.6 °C 1019.5 hPa NW 1.6 km/h 8 km/h 83 % 0 mm
01:55 7.3 °C 4.6 °C 1019.2 hPa West 3.2 km/h 8 km/h 83 % 0 mm
02:00 7.4 °C 4.9 °C 1019.2 hPa NNW 6.4 km/h 9.7 km/h 84 % 0 mm
02:05 7.5 °C 4.8 °C 1019.5 hPa WNW 6.4 km/h 16.1 km/h 83 % 0 mm
02:10 7.6 °C 4.7 °C 1019.5 hPa WNW 8 km/h 16.1 km/h 82 % 0 mm
02:15 7.7 °C 4.6 °C 1019.5 hPa NNW 11.3 km/h 20.9 km/h 81 % 0 mm
02:25 7.7 °C 4.6 °C 1019.2 hPa North 4.8 km/h 24.1 km/h 81 % 0 mm
02:31 7.6 °C 4.4 °C 1019.5 hPa NW 9.7 km/h 24.1 km/h 80 % 0 mm
02:36 7.6 °C 4.2 °C 1019.5 hPa WSW 14.5 km/h 24.1 km/h 79 % 0 mm
02:41 7.4 °C 3.8 °C 1019.5 hPa NW 4.8 km/h 32.2 km/h 78 % 0 mm
02:46 7.3 °C 3.9 °C 1019.5 hPa WNW 6.4 km/h 32.2 km/h 79 % 0 mm
02:51 7.2 °C 3.8 °C 1019.5 hPa NW 11.3 km/h 32.2 km/h 79 % 0 mm
02:56 7.2 °C 3.8 °C 1019.5 hPa NW 16.1 km/h 24.1 km/h 79 % 0 mm
03:01 7.1 °C 3.7 °C 1019.5 hPa NW 4.8 km/h 24.1 km/h 79 % 0 mm
03:11 6.9 °C 3.7 °C 1018.8 hPa NNW 6.4 km/h 19.3 km/h 80 % 0 mm
03:16 6.8 °C 3.6 °C 1018.8 hPa NNW 8 km/h 17.7 km/h 80 % 0 mm
03:21 6.8 °C 3.6 °C 1018.8 hPa NW 3.2 km/h 17.7 km/h 80 % 0 mm
03:26 6.7 °C 3.7 °C 1018.8 hPa NW 3.2 km/h 16.1 km/h 81 % 0 mm
03:31 6.7 °C 3.7 °C 1019.2 hPa NNW 6.4 km/h 17.7 km/h 81 % 0 mm
03:36 6.7 °C 3.7 °C 1019.2 hPa NW 9.7 km/h 17.7 km/h 81 % 0 mm
03:41 6.7 °C 3.7 °C 1019.2 hPa NW 6.4 km/h 17.7 km/h 81 % 0 mm
03:46 6.8 °C 3.9 °C 1019.2 hPa NW 8 km/h 12.9 km/h 82 % 0 mm
03:51 6.8 °C 3.8 °C 1019.2 hPa NNW 6.4 km/h 12.9 km/h 81 % 0 mm
03:56 6.9 °C 3.9 °C 1019.2 hPa NW 1.6 km/h 16.1 km/h 81 % 0 mm
04:01 6.9 °C 3.9 °C 1019.2 hPa WNW 3.2 km/h 16.1 km/h 81 % 0 mm
04:06 6.9 °C 3.9 °C 1019.2 hPa NW 6.4 km/h 16.1 km/h 81 % 0 mm
04:11 6.8 °C 3.8 °C 1019.2 hPa NW 6.4 km/h 16.1 km/h 81 % 0 mm
04:16 6.8 °C 3.8 °C 1018.8 hPa NNE 6.4 km/h 16.1 km/h 81 % 0 mm
04:21 6.7 °C 3.7 °C 1018.8 hPa NNW 1.6 km/h 16.1 km/h 81 % 0 mm
04:31 6.6 °C 3.6 °C 1019.2 hPa NNW 6.4 km/h 9.7 km/h 81 % 0 mm
04:36 6.6 °C 3.6 °C 1019.2 hPa NNW 6.4 km/h 9.7 km/h 81 % 0 mm
04:41 6.6 °C 3.6 °C 1019.5 hPa NW 11.3 km/h 12.9 km/h 81 % 0 mm
04:46 6.6 °C 3.6 °C 1019.5 hPa NNW 3.2 km/h 12.9 km/h 81 % 0 mm
04:51 6.6 °C 3.4 °C 1019.5 hPa NW 11.3 km/h 14.5 km/h 80 % 0 mm
05:01 6.5 °C 3.3 °C 1019.5 hPa NNW 11.3 km/h 16.1 km/h 80 % 0 mm
05:06 6.4 °C 3.2 °C 1019.2 hPa NW 8 km/h 16.1 km/h 80 % 0 mm
05:11 6.3 °C 3.1 °C 1019.5 hPa NNW 6.4 km/h 16.1 km/h 80 % 0 mm
05:21 6.2 °C 3 °C 1019.5 hPa NW 6.4 km/h 14.5 km/h 80 % 0 mm
05:26 6.2 °C 3.2 °C 1019.5 hPa North 6.4 km/h 14.5 km/h 81 % 0 mm
05:31 6.1 °C 3.1 °C 1019.5 hPa NNW 1.6 km/h 11.3 km/h 81 % 0 mm
05:36 6 °C 3.2 °C 1019.5 hPa Calm   11.3 km/h 82 % 0 mm
05:41 5.9 °C 3.1 °C 1019.9 hPa Calm   8 km/h 82 % 0 mm
05:46 5.8 °C 3 °C 1019.9 hPa NNW 4.8 km/h 8 km/h 82 % 0 mm
05:52 5.8 °C 3 °C 1019.9 hPa NNW 8 km/h 12.9 km/h 82 % 0 mm
05:57 5.7 °C 2.9 °C 1019.9 hPa NW 6.4 km/h 14.5 km/h 82 % 0 mm
06:07 5.6 °C 2.6 °C 1020.2 hPa NW 4.8 km/h 14.5 km/h 81 % 0 mm
06:12 5.4 °C 2.4 °C 1019.9 hPa NNW 4.8 km/h 14.5 km/h 81 % 0 mm
06:17 5.4 °C 2.4 °C 1020.2 hPa North 11.3 km/h 16.1 km/h 81 % 0 mm
06:22 5.3 °C 2.3 °C 1020.2 hPa NW 1.6 km/h 16.1 km/h 81 % 0 mm
06:27 5.2 °C 2.2 °C 1020.2 hPa NNW 6.4 km/h 16.1 km/h 81 % 0 mm
06:32 5.2 °C 2.2 °C 1020.2 hPa NW 6.4 km/h 12.9 km/h 81 % 0 mm
06:37 5.1 °C 2.3 °C 1020.2 hPa NNW 6.4 km/h 14.5 km/h 82 % 0 mm
06:42 5.1 °C 2.3 °C 1020.5 hPa WNW 4.8 km/h 14.5 km/h 82 % 0 mm
06:47 4.9 °C 2.1 °C 1020.2 hPa NNW 4.8 km/h 14.5 km/h 82 % 0 mm
06:52 4.9 °C 2.1 °C 1020.2 hPa NNW 4.8 km/h 14.5 km/h 82 % 0 mm
06:57 4.8 °C 2 °C 1020.2 hPa NNW 1.6 km/h 14.5 km/h 82 % 0 mm
07:02 4.8 °C 2.2 °C 1020.5 hPa WNW 4.8 km/h 14.5 km/h 83 % 0 mm
07:07 4.8 °C 2.2 °C 1020.5 hPa NNW 9.7 km/h 9.7 km/h 83 % 0 mm
07:12 4.8 °C 2.2 °C 1020.5 hPa North 3.2 km/h 14.5 km/h 83 % 0 mm
07:17 4.8 °C 2.2 °C 1020.5 hPa NW 3.2 km/h 14.5 km/h 83 % 0 mm
07:22 4.8 °C 2.3 °C 1020.5 hPa WNW 1.6 km/h 14.5 km/h 84 % 0 mm
07:27 4.9 °C 2.3 °C 1020.5 hPa Calm   14.5 km/h 83 % 0 mm
07:32 4.9 °C 2.3 °C 1020.5 hPa North 4.8 km/h 9.7 km/h 83 % 0 mm
07:37 4.9 °C 2.3 °C 1020.5 hPa NW 3.2 km/h 11.3 km/h 83 % 0 mm
07:42 4.9 °C 2.3 °C 1020.5 hPa WNW 1.6 km/h 11.3 km/h 83 % 0 mm
07:47 5 °C 2.5 °C 1020.5 hPa NW 4.8 km/h 11.3 km/h 84 % 0 mm
07:52 5.1 °C 2.5 °C 1020.9 hPa NW 4.8 km/h 11.3 km/h 83 % 0 mm
07:57 5.1 °C 2.6 °C 1020.5 hPa NNW 4.8 km/h 8 km/h 84 % 0 mm
08:02 5.2 °C 2.7 °C 1020.5 hPa NNW 6.4 km/h 8 km/h 84 % 0 mm
08:07 5.3 °C 2.6 °C 1020.9 hPa NW 4.8 km/h 11.3 km/h 83 % 0 mm
08:12 5.4 °C 2.7 °C 1020.9 hPa NW 4.8 km/h 11.3 km/h 83 % 0 mm
08:17 5.5 °C 2.8 °C 1020.9 hPa NW 4.8 km/h 11.3 km/h 83 % 0 mm
08:22 5.6 °C 2.9 °C 1020.9 hPa NW 4.8 km/h 11.3 km/h 83 % 0 mm
08:27 5.7 °C 3 °C 1020.5 hPa NW 9.7 km/h 11.3 km/h 83 % 0 mm
08:32 5.7 °C 3 °C 1020.9 hPa WNW 4.8 km/h 12.9 km/h 83 % 0 mm
08:37 5.8 °C 3 °C 1021.2 hPa NNW 9.7 km/h 12.9 km/h 82 % 0 mm
08:42 5.8 °C 3 °C 1021.2 hPa NNW 1.6 km/h 12.9 km/h 82 % 0 mm
08:47 5.9 °C 3.1 °C 1021.2 hPa NW 6.4 km/h 11.3 km/h 82 % 0 mm
08:52 6 °C 3.2 °C 1021.2 hPa NNW 4.8 km/h 11.3 km/h 82 % 0 mm
08:57 6.1 °C 3.1 °C 1021.2 hPa NW 4.8 km/h 11.3 km/h 81 % 0 mm
09:02 6.1 °C 3.1 °C 1021.6 hPa NNW 6.4 km/h 12.9 km/h 81 % 0 mm
09:07 6.1 °C 3.1 °C 1021.2 hPa NNW 4.8 km/h 12.9 km/h 81 % 0 mm
09:08 6.1 °C 3.3 °C 1021.2 hPa North 3.2 km/h 12.9 km/h 82 % 0 mm
09:13 6.3 °C 3.5 °C 1021.6 hPa NW 1.6 km/h 12.9 km/h 82 % 0 mm
09:18 6.3 °C 3.3 °C 1021.6 hPa West 6.4 km/h 11.3 km/h 81 % 0 mm
09:23 6.3 °C 3.3 °C 1021.6 hPa NW 4.8 km/h 9.7 km/h 81 % 0 mm
09:28 6.4 °C 3.4 °C 1021.2 hPa NW 4.8 km/h 11.3 km/h 81 % 0 mm
09:33 6.5 °C 3.5 °C 1021.6 hPa North 3.2 km/h 11.3 km/h 81 % 0 mm
09:38 6.6 °C 3.4 °C 1021.6 hPa NW 3.2 km/h 11.3 km/h 80 % 0 mm
09:43 6.7 °C 3.5 °C 1021.6 hPa NW 4.8 km/h 11.3 km/h 80 % 0 mm
09:48 6.8 °C 3.8 °C 1021.6 hPa NNW 3.2 km/h 9.7 km/h 81 % 0 mm
09:53 7.1 °C 3.9 °C 1021.9 hPa NW 6.4 km/h 9.7 km/h 80 % 0 mm
09:58 7.1 °C 3.7 °C 1021.9 hPa NNW 3.2 km/h 11.3 km/h 79 % 0 mm
10:04 7.2 °C 3.8 °C 1021.6 hPa NW 1.6 km/h 11.3 km/h 79 % 0 mm
10:09 7.4 °C 3.8 °C 1021.6 hPa WNW 3.2 km/h 11.3 km/h 78 % 0 mm
10:14 7.4 °C 3.6 °C 1021.6 hPa NNW 3.2 km/h 11.3 km/h 77 % 0 mm
10:19 7.7 °C 3.9 °C 1021.6 hPa NNW 9.7 km/h 14.5 km/h 77 % 0 mm
10:29 7.8 °C 4 °C 1021.6 hPa North 6.4 km/h 14.5 km/h 77 % 0 mm
10:34 8.1 °C 4.3 °C 1021.9 hPa NW 6.4 km/h 14.5 km/h 77 % 0 mm
10:39 8 °C 4 °C 1021.9 hPa WNW 8 km/h 11.3 km/h 76 % 0 mm
10:44 8.1 °C 4.3 °C 1022.2 hPa NW 8 km/h 9.7 km/h 77 % 0 mm
10:49 8.1 °C 4.1 °C 1022.2 hPa WNW 9.7 km/h 11.3 km/h 76 % 0 mm
10:54 8.2 °C 4.2 °C 1021.9 hPa WNW 4.8 km/h 12.9 km/h 76 % 0 mm
10:59 8.4 °C 4.2 °C 1021.9 hPa NW 9.7 km/h 12.9 km/h 75 % 0 mm
11:04 8.7 °C 4.5 °C 1021.9 hPa NNW 6.4 km/h 12.9 km/h 75 % 0 mm
11:09 9.1 °C 4.9 °C 1021.6 hPa Calm   12.9 km/h 75 % 0 mm
11:14 9.6 °C 5 °C 1021.2 hPa NNW 8 km/h 12.9 km/h 73 % 0 mm
11:19 9.8 °C 5 °C 1020.9 hPa NNW 4.8 km/h 14.5 km/h 72 % 0 mm
11:24 9.7 °C 4.7 °C 1020.9 hPa NW 6.4 km/h 14.5 km/h 71 % 0 mm
11:29 9.9 °C 5.1 °C 1020.9 hPa ENE 4.8 km/h 14.5 km/h 72 % 0 mm
11:34 10.1 °C 5.1 °C 1020.9 hPa NNE 1.6 km/h 12.9 km/h 71 % 0 mm
11:39 10.2 °C 5.2 °C 1020.5 hPa ENE 1.6 km/h 12.9 km/h 71 % 0 mm
11:44 10.4 °C 5.4 °C 1020.5 hPa ENE 3.2 km/h 9.7 km/h 71 % 0 mm
11:49 10.2 °C 5.2 °C 1020.5 hPa ENE 3.2 km/h 11.3 km/h 71 % 0 mm
11:54 10.3 °C 5.1 °C 1020.5 hPa NW 4.8 km/h 11.3 km/h 70 % 0 mm
11:59 10.4 °C 5.2 °C 1020.2 hPa NW 4.8 km/h 14.5 km/h 70 % 0 mm
12:04 10.6 °C 5.4 °C 1020.5 hPa NNW 4.8 km/h 14.5 km/h 70 % 0 mm
12:09 10.7 °C 5.5 °C 1020.2 hPa NW 6.4 km/h 16.1 km/h 70 % 0 mm
12:14 10.8 °C 5.5 °C 1019.9 hPa North 6.4 km/h 16.1 km/h 70 % 0 mm
12:19 10.8 °C 5.5 °C 1019.9 hPa NNW 6.4 km/h 16.1 km/h 70 % 0 mm
12:24 11.1 °C 5.4 °C 1019.9 hPa NW 8 km/h 16.1 km/h 68 % 0 mm
12:29 10.9 °C 5.4 °C 1019.5 hPa NNW 9.7 km/h 16.1 km/h 69 % 0 mm
12:34 10.6 °C 5.1 °C 1019.5 hPa NNW 11.3 km/h 16.1 km/h 69 % 0 mm
12:39 10.3 °C 5.1 °C 1019.2 hPa NNW 3.2 km/h 17.7 km/h 70 % 0 mm
12:44 10.6 °C 5.6 °C 1018.8 hPa West 3.2 km/h 17.7 km/h 71 % 0 mm
12:49 10.7 °C 5.5 °C 1018.5 hPa Calm   17.7 km/h 70 % 0 mm
12:54 10.9 °C 5.6 °C 1018.5 hPa Calm   11.3 km/h 70 % 0 mm
12:59 10.9 °C 5.6 °C 1018.5 hPa WNW 3.2 km/h 9.7 km/h 70 % 0 mm
13:04 10.8 °C 5.3 °C 1018.5 hPa Calm   9.7 km/h 69 % 0 mm
13:09 10.8 °C 5.5 °C 1018.2 hPa NNW 4.8 km/h 8 km/h 70 % 0 mm
13:14 10.8 °C 5.5 °C 1018.5 hPa NE 3.2 km/h 8 km/h 70 % 0 mm
13:19 10.7 °C 5.7 °C 1018.2 hPa NNW 6.4 km/h 9.7 km/h 71 % 0 mm
13:24 10.7 °C 5.7 °C 1018.2 hPa SW 1.6 km/h 9.7 km/h 71 % 0 mm
13:29 10.7 °C 5.7 °C 1017.8 hPa NW 3.2 km/h 9.7 km/h 71 % 0 mm
13:34 10.7 °C 5.7 °C 1017.8 hPa NW 4.8 km/h 9.7 km/h 71 % 0 mm
13:39 10.6 °C 5.6 °C 1017.8 hPa NW 4.8 km/h 11.3 km/h 71 % 0 mm
13:45 10.6 °C 5.8 °C 1017.8 hPa WNW 3.2 km/h 11.3 km/h 72 % 0 mm
13:50 10.6 °C 5.6 °C 1017.8 hPa WNW 1.6 km/h 11.3 km/h 71 % 0 mm
13:55 10.5 °C 5.7 °C 1018.2 hPa ENE 4.8 km/h 12.9 km/h 72 % 0 mm
14:00 10.7 °C 5.9 °C 1017.8 hPa North 6.4 km/h 12.9 km/h 72 % 0 mm
14:05 10.6 °C 5.6 °C 1017.8 hPa NNW 4.8 km/h 12.9 km/h 71 % 0 mm
14:10 10.6 °C 5.8 °C 1017.8 hPa NNW 1.6 km/h 11.3 km/h 72 % 0 mm
14:15 10.7 °C 5.9 °C 1017.8 hPa NNW 4.8 km/h 12.9 km/h 72 % 0 mm
14:20 10.6 °C 5.6 °C 1017.8 hPa NW 3.2 km/h 12.9 km/h 71 % 0 mm
14:25 10.4 °C 5.4 °C 1018.2 hPa West 1.6 km/h 12.9 km/h 71 % 0 mm
14:30 10.5 °C 5.5 °C 1017.8 hPa NW 4.8 km/h 8 km/h 71 % 0 mm
14:35 10.6 °C 5.6 °C 1017.8 hPa NW 6.4 km/h 8 km/h 71 % 0 mm
14:40 10.6 °C 5.6 °C 1017.8 hPa NW 3.2 km/h 11.3 km/h 71 % 0 mm
14:45 10.7 °C 5.7 °C 1017.8 hPa NW 3.2 km/h 11.3 km/h 71 % 0 mm
14:50 10.8 °C 5.8 °C 1017.5 hPa North 8 km/h 11.3 km/h 71 % 0 mm
14:55 10.9 °C 5.6 °C 1017.5 hPa West 1.6 km/h 8 km/h 70 % 0 mm
15:00 10.8 °C 5.8 °C 1017.5 hPa NNW 8 km/h 11.3 km/h 71 % 0 mm
15:05 10.8 °C 5.5 °C 1017.5 hPa NW 1.6 km/h 11.3 km/h 70 % 0 mm
15:10 10.7 °C 5.5 °C 1017.5 hPa NNW 3.2 km/h 11.3 km/h 70 % 0 mm
15:15 10.7 °C 5.7 °C 1017.2 hPa NNW 3.2 km/h 9.7 km/h 71 % 0 mm
15:20 10.8 °C 5.8 °C 1017.2 hPa NNE 3.2 km/h 9.7 km/h 71 % 0 mm
15:25 10.7 °C 5.7 °C 1017.5 hPa NW 6.4 km/h 9.7 km/h 71 % 0 mm
15:30 10.7 °C 5.7 °C 1017.8 hPa North 6.4 km/h 9.7 km/h 71 % 0 mm
15:35 10.7 °C 5.9 °C 1017.8 hPa NW 3.2 km/h 9.7 km/h 72 % 0 mm
15:40 10.8 °C 6 °C 1017.8 hPa NW 4.8 km/h 9.7 km/h 72 % 0 mm
15:45 10.8 °C 6 °C 1017.8 hPa NNW 4.8 km/h 9.7 km/h 72 % 0 mm
15:50 10.8 °C 6 °C 1017.5 hPa Calm   8 km/h 72 % 0 mm
15:55 10.8 °C 6 °C 1017.5 hPa Calm   8 km/h 72 % 0 mm
16:00 10.8 °C 5.8 °C 1017.5 hPa NW 1.6 km/h 4.8 km/h 71 % 0 mm
16:05 10.8 °C 6 °C 1017.5 hPa NW 3.2 km/h 3.2 km/h 72 % 0 mm
16:10 10.8 °C 6 °C 1017.5 hPa Calm   4.8 km/h 72 % 0 mm
16:15 10.9 °C 6.1 °C 1017.5 hPa Calm   4.8 km/h 72 % 0 mm
16:20 10.9 °C 6.1 °C 1017.2 hPa NE 3.2 km/h 4.8 km/h 72 % 0 mm
16:25 10.9 °C 5.8 °C 1017.5 hPa Calm   6.4 km/h 71 % 0 mm
16:30 10.9 °C 6.1 °C 1017.5 hPa North 1.6 km/h 6.4 km/h 72 % 0 mm
16:35 10.9 °C 5.8 °C 1017.8 hPa Calm   6.4 km/h 71 % 0 mm
16:40 10.9 °C 6.1 °C 1017.2 hPa ENE 3.2 km/h 4.8 km/h 72 % 0 mm
16:46 10.9 °C 5.8 °C 1017.5 hPa Calm   4.8 km/h 71 % 0 mm
16:52 10.8 °C 6 °C 1017.2 hPa NNW 1.6 km/h 4.8 km/h 72 % 0 mm
17:00 10.7 °C 5.9 °C 1016.8 hPa Calm   4.8 km/h 72 % 0 mm
17:05 10.6 °C 5.6 °C 1016.8 hPa NNW 1.6 km/h 4.8 km/h 71 % 0 mm
17:10 10.4 °C 5.4 °C 1016.8 hPa NNW 3.2 km/h 4.8 km/h 71 % 0 mm
17:15 10.3 °C 5.5 °C 1016.8 hPa NNW 4.8 km/h 4.8 km/h 72 % 0 mm
17:20 10.2 °C 5.4 °C 1016.5 hPa NW 1.6 km/h 4.8 km/h 72 % 0 mm
17:25 10.1 °C 5.3 °C 1016.5 hPa NW 1.6 km/h 4.8 km/h 72 % 0 mm
17:30 10 °C 5.4 °C 1016.5 hPa NW 1.6 km/h 8 km/h 73 % 0 mm
17:35 9.9 °C 5.3 °C 1016.5 hPa NW 4.8 km/h 8 km/h 73 % 0 mm
17:40 9.9 °C 5.3 °C 1016.5 hPa NW 3.2 km/h 8 km/h 73 % 0 mm
17:45 9.8 °C 5.4 °C 1016.5 hPa North 3.2 km/h 6.4 km/h 74 % 0 mm
17:50 9.8 °C 5.4 °C 1016.5 hPa Calm   6.4 km/h 74 % 0 mm
17:55 9.8 °C 5.4 °C 1016.1 hPa Calm   4.8 km/h 74 % 0 mm
18:00 9.7 °C 5.5 °C 1016.5 hPa NNW 1.6 km/h 4.8 km/h 75 % 0 mm
18:05 9.7 °C 5.5 °C 1016.5 hPa WNW 1.6 km/h 4.8 km/h 75 % 0 mm
18:10 9.7 °C 5.5 °C 1016.5 hPa Calm   4.8 km/h 75 % 0 mm
18:15 9.7 °C 5.5 °C 1016.1 hPa NNW 1.6 km/h 4.8 km/h 75 % 0 mm
18:20 9.7 °C 5.5 °C 1016.1 hPa Calm   3.2 km/h 75 % 0 mm
18:25 9.6 °C 5.4 °C 1016.5 hPa NW 3.2 km/h 3.2 km/h 75 % 0 mm
18:30 9.5 °C 5.5 °C 1016.5 hPa NNW 3.2 km/h 4.8 km/h 76 % 0 mm
18:35 9.4 °C 5.4 °C 1016.5 hPa NNW 1.6 km/h 4.8 km/h 76 % 0 mm
18:40 9.3 °C 5.3 °C 1016.5 hPa NW 3.2 km/h 6.4 km/h 76 % 0 mm
18:45 9.3 °C 5.3 °C 1016.5 hPa NNW 3.2 km/h 6.4 km/h 76 % 0 mm
18:50 9.2 °C 5.4 °C 1016.8 hPa NNW 1.6 km/h 6.4 km/h 77 % 0 mm
18:55 9.1 °C 5.3 °C 1016.8 hPa NNW 1.6 km/h 6.4 km/h 77 % 0 mm
19:00 9.1 °C 5.5 °C 1016.8 hPa NW 1.6 km/h 6.4 km/h 78 % 0 mm
19:16 8.9 °C 5.5 °C 1016.8 hPa NW 1.6 km/h 4.8 km/h 79 % 0 mm
19:20 8.9 °C 5.5 °C 1016.8 hPa Calm   4.8 km/h 79 % 0 mm
19:26 8.9 °C 5.6 °C 1016.8 hPa NNW 1.6 km/h 4.8 km/h 80 % 0 mm
19:36 8.8 °C 5.5 °C 1016.5 hPa Calm   3.2 km/h 80 % 0 mm
19:41 8.8 °C 5.5 °C 1016.5 hPa Calm   3.2 km/h 80 % 0 mm
19:46 8.7 °C 5.6 °C 1016.5 hPa NW 1.6 km/h 1.6 km/h 81 % 0 mm
19:51 8.6 °C 5.5 °C 1016.5 hPa Calm   1.6 km/h 81 % 0 mm
19:56 8.5 °C 5.4 °C 1016.5 hPa Calm   1.6 km/h 81 % 0 mm
20:01 8.4 °C 5.5 °C 1016.8 hPa Calm   1.6 km/h 82 % 0 mm
20:06 8.3 °C 5.4 °C 1016.5 hPa Calm   1.6 km/h 82 % 0 mm
20:11 8.2 °C 5.5 °C 1016.5 hPa Calm   1.6 km/h 83 % 0 mm
20:16 8.1 °C 5.4 °C 1016.5 hPa Calm   1.6 km/h 83 % 0 mm
20:21 7.8 °C 5.1 °C 1016.5 hPa Calm   1.6 km/h 83 % 0 mm
20:26 7.7 °C 5.2 °C 1016.5 hPa Calm   1.6 km/h 84 % 0 mm
20:31 7.6 °C 5.2 °C 1016.5 hPa Calm   1.6 km/h 85 % 0 mm
20:36 7.5 °C 5.1 °C 1016.1 hPa Calm   1.6 km/h 85 % 0 mm
20:41 7.3 °C 4.9 °C 1016.1 hPa Calm     85 % 0 mm
20:46 7.1 °C 4.9 °C 1016.5 hPa Calm     86 % 0 mm
20:51 6.9 °C 4.7 °C 1016.5 hPa Calm     86 % 0 mm
20:56 6.8 °C 4.6 °C 1016.1 hPa Calm     86 % 0 mm
21:01 6.6 °C 4.6 °C 1016.1 hPa Calm     87 % 0 mm
21:06 6.4 °C 4.4 °C 1016.1 hPa Calm     87 % 0 mm
21:11 6.3 °C 4.3 °C 1015.8 hPa Calm     87 % 0 mm
21:16 6.2 °C 4.4 °C 1015.8 hPa Calm     88 % 0 mm
21:21 6.2 °C 4.5 °C 1015.8 hPa Calm     89 % 0 mm
21:26 6.3 °C 4.8 °C 1015.8 hPa Calm     90 % 0 mm
21:31 6.3 °C 4.8 °C 1015.8 hPa Calm     90 % 0 mm
21:36 6.2 °C 4.7 °C 1016.1 hPa Calm     90 % 0 mm
21:41 6.3 °C 4.9 °C 1015.8 hPa Calm     91 % 0 mm
21:46 6.3 °C 4.9 °C 1015.5 hPa Calm     91 % 0 mm
21:51 6.2 °C 4.8 °C 1015.5 hPa Calm     91 % 0 mm
21:56 6.1 °C 4.7 °C 1015.5 hPa Calm     91 % 0 mm
22:01 6.1 °C 4.9 °C 1015.5 hPa Calm     92 % 0 mm
22:06 6 °C 4.8 °C 1015.5 hPa Calm     92 % 0 mm
22:11 5.9 °C 4.7 °C 1015.5 hPa Calm     92 % 0 mm
22:16 6 °C 4.8 °C 1015.5 hPa Calm     92 % 0 mm
22:21 6.1 °C 4.9 °C 1015.5 hPa Calm     92 % 0 mm
22:26 6.1 °C 5.1 °C 1015.5 hPa Calm   1.6 km/h 93 % 0 mm
22:31 6.1 °C 5.1 °C 1015.5 hPa Calm   1.6 km/h 93 % 0 mm
22:36 6.2 °C 5.2 °C 1015.5 hPa Calm   1.6 km/h 93 % 0 mm
22:42 6.3 °C 5.3 °C 1015.5 hPa Calm   1.6 km/h 93 % 0 mm
22:47 6.4 °C 5.4 °C 1015.5 hPa Calm   1.6 km/h 93 % 0 mm
22:52 6.5 °C 5.4 °C 1015.5 hPa Calm   1.6 km/h 93 % 0 mm
22:57 6.6 °C 5.5 °C 1015.5 hPa WNW 1.6 km/h 1.6 km/h 93 % 0 mm
23:02 6.7 °C 5.6 °C 1015.1 hPa Calm   1.6 km/h 93 % 0 mm
23:07 6.7 °C 5.5 °C 1015.1 hPa Calm   1.6 km/h 92 % 0 mm
23:12 6.7 °C 5.5 °C 1014.8 hPa SSE 1.6 km/h 1.6 km/h 92 % 0 mm
23:17 6.7 °C 5.5 °C 1014.8 hPa Calm   1.6 km/h 92 % 0 mm
23:22 6.7 °C 5.5 °C 1014.4 hPa Calm   1.6 km/h 92 % 0 mm
23:27 6.7 °C 5.5 °C 1014.4 hPa Calm   1.6 km/h 92 % 0 mm
23:32 6.7 °C 5.5 °C 1014.4 hPa Calm   1.6 km/h 92 % 0 mm
23:37 6.6 °C 5.4 °C 1014.4 hPa Calm     92 % 0 mm
23:42 6.4 °C 5.2 °C 1014.8 hPa Calm     92 % 0 mm
23:47 6.3 °C 5.1 °C 1014.8 hPa Calm     92 % 0 mm
23:52 6.2 °C 5 °C 1014.4 hPa Calm     92 % 0 mm
23:57 6.1 °C 4.9 °C 1014.8 hPa Calm     92 % 0 mm
Spring, Texas: Villages of Bridgestone
Compliments of Weather Underground - 2.75 mb

Script developed by  Jim McMurry - jmcmurry@mwt.net Adapted for the template by  Wim van der Kuil - Leuven-Template.eu

You find our weather info also at:

UK Metoffice

WeatherCloud

Weather Underground

Mid-South Weather Network

AWEKAS

Citizen Weather Observer Program (CWOP)

HAMweather, WeatherForYou, PWS Weather

Equipment we use:

Weather-station
Davis Vantage Vue

Weather-program
Meteohub

Weather-server
Debian 7.9 x86 (Guest)

Provider
DreamHost

Davis Vantage Vue

Meteohub

Debian 7.9 x86 (Guest)

DreamHost